User: anonymous   Login
Location: Ostrava
(49.8330°N, 18.2830°E)
Time: 11:06:23
(UTC+01:00)
Language:

Cosmos 1766 - Orbit

View from above orbital plane
View from above orbital plane
View from above satellite
View from above satellite

Ground track
Ground track

The orbit data is extracted from the following two-line orbital elements,

1 16881U 86055A   15029.18783393  .00003909  00000-0  25734-3 0   724
2 16881 082.5103 153.3728 0013657 159.4353 200.7427 15.07206700550220
Epoch (UTC): 29 January 2015 04:30:28
Eccentricity: 0.0013657
inclination: 82.5103°
perigee height: 535 km
apogee height: 554 km
right ascension of ascending node: 153.3728°
argument of perigee: 159.4353°
revolutions per day: 15.07206700
mean anomaly at epoch: 200.7427°
orbit number at epoch: 55022

The dashed part of the orbit path shows where the satellite is in the earth's shadow,  

DLR